Minneapolis Flying Cloud, MN

9:37 PM CST on December 14, 2017 (GMT -0600)
Flying Cloud

Weather History for KFCM - October, 2011

Change the Weather History Date:

Saturday, October 8, 2011

  Actual Average Record
Temperature  
Mean Temperature 75 °F -  
Max Temperature 84 °F 61 °F 88 °F (2010)
Min Temperature 69 °F 40 °F 28 °F (2000)
Cooling Degree Days 10    
Growing Degree Days 25 (Base 50)    
Moisture  
Dew Point 56 °F    
Average Humidity 52    
Maximum Humidity 71    
Minimum Humidity 40    
Precipitation  
Precipitation 0.03 in - - ()
Sea Level Pressure  
Sea Level Pressure 30.01 in    
Wind  
Wind Speed 14 mph (SSW)    
Max Wind Speed 22 mph    
Max Gust Speed 29 mph    
Visibility 10 miles    
Events      
Averages and records for this station are not official NWS values.
T = Trace of Precipitation, MM = Missing Value Source: NWS Daily Summary

Daily Weather History Graph

Daily Weather History Graph

Search for Another Location

Airport or City:

Trip Planner

Search our weather history database for the weather conditions in past years. The results will help you decide how hot, cold, wet, or windy it might be!

Date:

Astronomy

Oct. 08, 2011 Rise Set
Actual Time 7:20 AM CDT 6:41 PM CDT
Civil Twilight 6:50 AM CDT 7:11 PM CDT
Nautical Twilight 6:16 AM CDT 7:44 PM CDT
Astronomical Twilight 5:42 AM CDT 8:19 PM CDT
Moon 4:57 PM CDT (10/8) 4:01 AM CDT (10/8)
Length of Visible Light 12h 20m
Length of Day
11h 21m
Waxing Gibbous, 90% of the Moon is Illuminated
Oct 8
Waxing Gibbous
Oct 11
Full
Oct 19
Last Quarter
Oct 26
New
Nov 2
First Quarter

Hourly Weather History & Observations

Time (CDT) Temp. Heat Index Dew Point Humidity Pressure Visibility Wind Dir Wind Speed Gust Speed Precip Events Conditions
12:53 AM 77.0 °F - 55.9 °F 48% 29.89 in 10.0 mi South 21.9 mph 28.8 mph N/A   Overcast
1:53 AM 75.0 °F - 55.0 °F 50% 29.91 in 10.0 mi South 18.4 mph 28.8 mph N/A   Overcast
2:53 AM 75.0 °F - 54.0 °F 48% 29.92 in 10.0 mi South 15.0 mph 26.5 mph N/A   Overcast
3:53 AM 73.9 °F - 54.0 °F 50% 29.93 in 10.0 mi South 13.8 mph 20.7 mph N/A   Clear
4:53 AM 72.0 °F - 53.1 °F 51% 29.95 in 10.0 mi South 13.8 mph 20.7 mph N/A   Clear
5:53 AM 71.1 °F - 53.1 °F 53% 29.97 in 10.0 mi South 15.0 mph 20.7 mph N/A   Clear
6:53 AM 70.0 °F - 52.0 °F 53% 29.99 in 10.0 mi SSW 15.0 mph 21.9 mph N/A   Clear
7:53 AM 70.0 °F - 51.1 °F 51% 30.02 in 10.0 mi SW 10.4 mph - N/A   Overcast
8:53 AM 69.1 °F - 54.0 °F 58% 30.04 in 10.0 mi South 9.2 mph - 0.00 in   Mostly Cloudy
9:53 AM 73.0 °F - 53.1 °F 49% 30.03 in 10.0 mi South 13.8 mph 20.7 mph N/A   Partly Cloudy
10:53 AM 75.0 °F - 52.0 °F 44% 30.03 in 10.0 mi South 13.8 mph - N/A   Partly Cloudy
11:53 AM 78.1 °F - 52.0 °F 40% 30.02 in 10.0 mi SSW 13.8 mph 20.7 mph N/A   Partly Cloudy
2:53 PM 81.0 °F 80.7 °F 55.0 °F 41% 30.01 in 10.0 mi South 17.3 mph 23.0 mph N/A   Overcast
3:53 PM 78.1 °F - 61.0 °F 56% 30.01 in 10.0 mi SW 6.9 mph - 0.03 in   Mostly Cloudy
4:53 PM 80.1 °F 80.6 °F 57.9 °F 47% 30.00 in 10.0 mi South 13.8 mph - N/A   Mostly Cloudy
5:53 PM 79.0 °F - 57.9 °F 48% 30.01 in 10.0 mi SSW 8.1 mph - N/A   Mostly Cloudy
7:53 PM 78.1 °F - 59.0 °F 52% 30.04 in 10.0 mi SSW 9.2 mph - N/A   Overcast
8:53 PM 75.9 °F - 59.0 °F 56% 30.07 in 10.0 mi SW 4.6 mph - N/A   Overcast
9:53 PM 73.9 °F - 59.0 °F 59% 30.09 in 10.0 mi WSW 4.6 mph - N/A   Mostly Cloudy
10:53 PM 72.0 °F - 59.0 °F 64% 30.10 in 10.0 mi South 5.8 mph - N/A   Mostly Cloudy
11:53 PM 70.0 °F - 60.1 °F 71% 30.11 in 10.0 mi Calm Calm - N/A   Overcast